Location: DARK SKY Beskydy - Park tmavé oblohy, www.darkskybeskydy.cz
(49.4926°N, 18.5016°E)
Time: 08:30:17
(UTC+01:00)

BlueWalker 3 - Pass Details

Date: 07 December 2022
Orbit: 499 x 517 km, 53.2° (Epoch: 29 January)

Event Time Altitude Azimuth Distance (km) Brightness Sun altitude
Rises 18:42:25 0° 293° (WNW) 2,626 6.5 -27.4°
Reaches altitude 10° 18:44:42 10° 286° (WNW) 1,733 5.5 -27.8°
Enters shadow 18:47:16 32° 257° (WSW) 885 3.7 -28.2°
